Weather in Ponkino

Russia / Kurgan Oblast     56°00′13″N   63°20′51″E
temp.,
°C
wind,
m/s
gust,
m/s
humid.,
%
clouds,
%
prec.,
mm/h
press.,
hPa
HPBL,
m
5 march, fri
fri523:00−11sw488845 0.0 999132
02:00−10ssw6128866 0.0 998267
05:00−6ssw8169483 0.4 995548
08:00−4sw8158792 0.6 993437
11:00−3wsw8158146 0.6 995871
14:00−2wsw7128067 0.0 9981013
17:00−2wsw5118083 0.0 1000497
20:00−3sw4886100 0.0 999214
6 march, sat
sat623:00−5w4988100 0.0 1001326
02:00−10w5108998 0.0 1003230
05:00−14w5119050 0.0 1007255
08:00−16w510910 0.0 1008175
11:00−11w612870 0.0 1009444
14:00−7wsw710816 0.0 1009898
17:00−7wsw5128142 0.0 1009698
20:00−11wsw510872 0.0 1010178
7 march, sun
sun723:00−14w349017 0.0 101255
02:00−17wnw22940 0.0 101220
05:00−18sw119538 0.0 101320
08:00−16ese2293100 0.0 101220
11:00−12e3493100 0.0 1010222
14:00−10ene4695100 0.6 1006392
17:00−9ne5895100 2.0 1003428
20:00−10n5995100 1.1 1002447
8 march, mon
mon823:00−12nnw51094100 1.5 1004312
02:00−17wnw479566 0.0 100791
05:00−19w459838 0.0 100983
08:00−21w44940 0.0 101069
11:00−16sw358913 0.0 1010236
14:00−12s5985100 0.0 1008495
17:00−11ssw71190100 0.3 1006722
20:00−9s51292100 0.1 1005430
9 march, tue
tue923:00−7wsw7158598 0.1 1006535
02:00−11sw5128633 0.0 1007264
05:00−12s488767 0.0 1007141
08:00−7sse71495100 0.9 1002699
11:00−4ssw111892100 2.4 9981288
14:00−5sw10167061 0.3 9971871
17:00−5wsw11188280 0.6 9991325
20:00−8w9177976 0.1 1003682